Flag for Canada Weather past 2 weeks in Stonewall, Manitoba, Canada

Now
10 °F

Passing clouds.


Feels Like: -5 °F
Forecast: 8 / 30 °F
Wind: 13 mph from West

Location: Winnipeg Int. Airportman.

Current Time: Mar 6, 2015 at 12:52:34 AM

Latest Report: Mar 6, 2015 at 12:00 AM


Visibility: 15 mi

Pressure: 29.97 "Hg

Humidity: 79%

Dew point: 5 °F

Location of StonewallLocation

Historic Weather in Stonewall — Graph

°F

Stonewall temperature yesterday

Maximum temperature yesterday: 21 °F (at 9:00 PM)
Minimum temperature yesterday: -13 °F (at 5:00 AM)
Average temperature yesterday: 3 °F

Past Weeks' High & Low Weather Summary

 TemperatureHumidityPressure
High27 °F (Feb 23, 9:00 PM)93% (Feb 24, 12:00 AM)30.85 "Hg (Feb 24, 12:00 AM)
Low-27 °F (Feb 22, 7:00 AM)50% (Feb 25, 2:00 PM)29.70 "Hg (Feb 23, 10:46 PM)
Average0 °F68%30.24 "Hg
* Reported Feb 18 11:00 PM — Mar 5 11:00 PM, Stonewall, Weather by CustomWeather, © 2015

Note: Actual official high and low records may vary slightly from our data, if they occured in-between our weather recording intervals... More about our weather records

Advertising

Stonewall weather history for previous 24 hours

 ConditionsComfort  
Time TempWeatherWind HumidityBarometerVisibility
11:00 PM
Thu, Mar 5
18 °FPassing clouds.12 mph68%29.96 "Hg15 mi
10:00 PM19 °FPassing clouds.14 mph68%29.95 "Hg15 mi
9:00 PM21 °FPassing clouds.18 mph68%29.96 "Hg15 mi
8:00 PM18 °FPassing clouds.18 mph68%29.98 "Hg15 mi
7:00 PM18 °FPassing clouds.17 mph73%30.02 "Hg15 mi
6:00 PM18 °FPartly sunny.18 mph68%30.05 "Hg15 mi
5:00 PM18 °FPartly sunny.20 mph68%30.08 "Hg15 mi
4:00 PM16 °FPartly sunny.21 mph67%30.12 "Hg15 mi
3:00 PM12 °FScattered clouds.24 mph67%30.15 "Hg15 mi
2:00 PM9 °FScattered clouds.23 mph66%30.18 "Hg15 mi
1:00 PM7 °FScattered clouds.22 mph61%30.23 "Hg15 mi
12:00 PM3 °FScattered clouds.21 mph60%30.26 "Hg15 mi
11:00 AM0 °FSunny.17 mph60%30.29 "Hg15 mi
10:00 AM-2 °FSunny.14 mph59%30.32 "Hg15 mi
9:00 AM-8 °FSunny.13 mph64%30.33 "Hg15 mi
8:00 AM-11 °FSunny.12 mph63%30.34 "Hg15 mi
7:00 AM-11 °FClear.10 mph63%30.35 "Hg15 mi
6:00 AM-11 °FClear.10 mph63%30.37 "Hg15 mi
5:00 AM-13 °FClear.9 mph69%30.36 "Hg15 mi
4:00 AM-11 °FClear.8 mph70%30.37 "Hg15 mi
3:00 AM-11 °FClear.9 mph63%30.40 "Hg15 mi
2:00 AM-11 °FClear.10 mph70%30.41 "Hg15 mi
1:00 AM-9 °FClear.12 mph64%30.40 "Hg15 mi
12:00 AM-8 °FClear.10 mph64%30.41 "Hg15 mi
Weather by CustomWeather, © 2015

See weather overviewHow to use our weather pages